Ortonville, MN

6:38 PM CST on November 19, 2017 (GMT -0600)
Ortonville Municipal-Martinson

Weather History for KVVV - January, 2012

Change the Weather History Date:

Monday, January 2, 2012

  Actual Average (KAQP) Record (KAQP)
Temperature  
Mean Temperature 14 °F -  
Max Temperature 19 °F 20 °F 48 °F (1998)
Min Temperature 10 °F 5 °F -20 °F (2014)
Degree Days  
Heating Degree Days 50    
Moisture  
Dew Point 6 °F    
Average Humidity 68    
Maximum Humidity 85    
Minimum Humidity 58    
Precipitation  
Precipitation 0.00 in - - ()
Sea Level Pressure  
Sea Level Pressure 30.52 in    
Wind  
Wind Speed 16 mph (NW)    
Max Wind Speed 24 mph    
Max Gust Speed 31 mph    
Visibility 10 miles    
Events      
Averages and records for this station are not official NWS values.
T = Trace of Precipitation, MM = Missing Value Source: NWS Daily Summary

Daily Weather History Graph

Daily Weather History Graph

Search for Another Location

Airport or City:

Trip Planner

Search our weather history database for the weather conditions in past years. The results will help you decide how hot, cold, wet, or windy it might be!

Date:

Astronomy

Jan. 02, 2012 Rise Set
Actual Time 8:05 AM CST 4:54 PM CST
Civil Twilight 7:31 AM CST 5:28 PM CST
Nautical Twilight 6:53 AM CST 6:05 PM CST
Astronomical Twilight 6:18 AM CST 6:41 PM CST
Moon 12:18 PM CST (1/2) 1:51 AM CST (1/2)
Length of Visible Light 9h 56m
Length of Day
8h 49m
Waxing Gibbous, 64% of the Moon is Illuminated
Jan 2
Waxing Gibbous
Jan 9
Full
Jan 16
Last Quarter
Jan 23
New
Jan 30
First Quarter

Hourly Weather History & Observations

Time (CST) Temp. Windchill Dew Point Humidity Pressure Visibility Wind Dir Wind Speed Gust Speed Precip Events Conditions
12:13 AM 19.4 °F 2.1 °F 8.6 °F 63% 30.46 in 10.0 mi NW 24.2 mph 27.6 mph N/A   Clear
12:34 AM 19.4 °F 4.1 °F 8.6 °F 63% 30.45 in 10.0 mi NW 18.4 mph 28.8 mph N/A   Clear
12:54 AM 19.4 °F 3.6 °F 6.8 °F 58% 30.45 in 10.0 mi NW 19.6 mph 26.5 mph N/A   Clear
1:13 AM 19.4 °F 3.2 °F 6.8 °F 58% 30.45 in 10.0 mi NW 20.7 mph 29.9 mph N/A   Clear
1:34 AM 19.4 °F 3.6 °F 6.8 °F 58% 30.45 in 10.0 mi NW 19.6 mph 31.1 mph N/A   Clear
1:53 AM 19.4 °F 4.1 °F 6.8 °F 58% 30.46 in 10.0 mi NW 18.4 mph 28.8 mph N/A   Clear
2:33 AM 17.6 °F 1.7 °F 6.8 °F 63% 30.46 in 10.0 mi NW 18.4 mph 26.5 mph N/A   Clear
2:54 AM 17.6 °F 2.2 °F 6.8 °F 63% 30.47 in 10.0 mi NW 17.3 mph 24.2 mph N/A   Clear
3:13 AM 17.6 °F 1.7 °F 6.8 °F 63% 30.48 in 10.0 mi NW 18.4 mph 24.2 mph N/A   Clear
3:34 AM 17.6 °F 2.2 °F 6.8 °F 63% 30.48 in 10.0 mi NW 17.3 mph 29.9 mph N/A   Clear
3:54 AM 15.8 °F 2.1 °F 6.8 °F 68% 30.48 in 10.0 mi NW 12.7 mph 28.8 mph N/A   Clear
4:13 AM 15.8 °F 1.4 °F 6.8 °F 68% 30.49 in 10.0 mi NW 13.8 mph - N/A   Clear
4:34 AM 15.8 °F -1.1 °F 6.8 °F 68% 30.49 in 10.0 mi NW 19.6 mph 25.3 mph N/A   Clear
4:53 AM 15.8 °F 1.4 °F 6.8 °F 68% 30.50 in 10.0 mi NW 13.8 mph 26.5 mph N/A   Clear
5:14 AM 15.8 °F 0.9 °F 6.8 °F 68% 30.50 in 10.0 mi NW 15.0 mph 21.9 mph N/A   Clear
5:34 AM 14.0 °F -2.5 °F 6.8 °F 73% 30.51 in 10.0 mi NW 17.3 mph 21.9 mph N/A   Clear
5:53 AM 14.0 °F -2.0 °F 6.8 °F 73% 30.51 in 10.0 mi NNW 16.1 mph 23.0 mph N/A   Clear
6:14 AM 12.2 °F -5.8 °F 6.8 °F 79% 30.52 in 10.0 mi NNW 19.6 mph 24.2 mph N/A   Clear
6:54 AM 12.2 °F -4.8 °F 6.8 °F 79% 30.54 in 10.0 mi NNW 17.3 mph 23.0 mph N/A   Clear
7:14 AM 12.2 °F -3.7 °F 5.0 °F 73% 30.54 in 10.0 mi NNW 15.0 mph 19.6 mph N/A   Clear
7:33 AM 12.2 °F -4.3 °F 5.0 °F 73% 30.55 in 10.0 mi NW 16.1 mph 25.3 mph N/A   Clear
7:54 AM 12.2 °F -4.3 °F 5.0 °F 73% 30.55 in 10.0 mi NW 16.1 mph 23.0 mph N/A   Clear
8:14 AM 10.4 °F -7.2 °F 5.0 °F 79% 30.56 in 10.0 mi NNW 17.3 mph 26.5 mph N/A   Clear
8:33 AM 10.4 °F -6.0 °F 5.0 °F 79% 30.57 in 10.0 mi NW 15.0 mph 23.0 mph N/A   Clear
8:54 AM 12.2 °F -5.3 °F 5.0 °F 73% 30.57 in 10.0 mi NNW 18.4 mph 24.2 mph N/A   Clear
9:14 AM 12.2 °F -4.8 °F 5.0 °F 73% 30.58 in 10.0 mi NNW 17.3 mph 25.3 mph N/A   Clear
9:33 AM 12.2 °F -4.3 °F 5.0 °F 73% 30.58 in 10.0 mi NNW 16.1 mph 20.7 mph N/A   Clear
10:13 AM 14.0 °F -3.0 °F 5.0 °F 67% 30.60 in 10.0 mi NNW 18.4 mph 29.9 mph N/A   Clear
10:34 AM 15.8 °F -1.1 °F 5.0 °F 62% 30.60 in 10.0 mi North 19.6 mph 26.5 mph N/A   Clear
10:53 AM 15.8 °F -1.5 °F 5.0 °F 62% 30.60 in 10.0 mi North 20.7 mph 27.6 mph N/A   Clear
11:14 AM 15.8 °F -0.2 °F 5.0 °F 62% 30.60 in 10.0 mi NNW 17.3 mph 24.2 mph N/A   Clear
11:54 AM 15.8 °F -0.2 °F 6.8 °F 68% 30.60 in 10.0 mi North 17.3 mph 23.0 mph N/A   Clear
12:14 PM 17.6 °F 3.2 °F 6.8 °F 63% 30.59 in 10.0 mi NNW 15.0 mph 18.4 mph N/A   Scattered Clouds
12:33 PM 17.6 °F 3.2 °F 6.8 °F 63% 30.58 in 10.0 mi NNW 15.0 mph - N/A   Scattered Clouds
12:54 PM 17.6 °F 2.2 °F 6.8 °F 63% 30.58 in 10.0 mi NNW 17.3 mph 21.9 mph N/A   Clear
1:14 PM 17.6 °F 5.0 °F 6.8 °F 63% 30.57 in 10.0 mi North 11.5 mph 19.6 mph N/A   Clear
1:33 PM 17.6 °F 4.3 °F 6.8 °F 63% 30.56 in 10.0 mi NW 12.7 mph 19.6 mph N/A   Clear
1:54 PM 17.6 °F 7.3 °F 6.8 °F 63% 30.55 in 10.0 mi NNW 8.1 mph 18.4 mph N/A   Clear
2:14 PM 19.4 °F 7.2 °F 6.8 °F 58% 30.55 in 10.0 mi NW 11.5 mph - N/A   Clear
2:33 PM 19.4 °F 9.5 °F 6.8 °F 58% 30.54 in 10.0 mi NW 8.1 mph - N/A   Clear
2:54 PM 19.4 °F 7.9 °F 6.8 °F 58% 30.54 in 10.0 mi NW 10.4 mph - N/A   Clear
3:14 PM 19.4 °F 8.6 °F 6.8 °F 58% 30.54 in 10.0 mi NW 9.2 mph - N/A   Clear
3:33 PM 19.4 °F 9.5 °F 6.8 °F 58% 30.54 in 10.0 mi NNW 8.1 mph - N/A   Clear
3:54 PM 17.6 °F 7.3 °F 6.8 °F 63% 30.54 in 10.0 mi NW 8.1 mph - N/A   Clear
4:14 PM 17.6 °F 10.7 °F 6.8 °F 63% 30.53 in 10.0 mi NNW 4.6 mph - N/A   Clear
4:33 PM 17.6 °F 8.2 °F 6.8 °F 63% 30.52 in 10.0 mi NNW 6.9 mph - N/A   Clear
4:54 PM 17.6 °F 9.3 °F 6.8 °F 63% 30.52 in 10.0 mi WNW 5.8 mph - N/A   Clear
5:14 PM 15.8 °F 8.6 °F 6.8 °F 68% 30.52 in 10.0 mi WNW 4.6 mph - N/A   Clear
5:34 PM 15.8 °F 10.2 °F 6.8 °F 68% 30.51 in 10.0 mi WNW 3.5 mph - N/A   Clear
5:54 PM 15.8 °F 10.2 °F 6.8 °F 68% 30.50 in 10.0 mi NW 3.5 mph - N/A   Clear
6:14 PM 14.0 °F - 6.8 °F 73% 30.49 in 10.0 mi Calm Calm - N/A   Clear
6:33 PM 14.0 °F - 6.8 °F 73% 30.48 in 10.0 mi Calm Calm - N/A   Clear
6:54 PM 12.2 °F - 6.8 °F 79% 30.48 in 10.0 mi Calm Calm - N/A   Clear
7:14 PM 12.2 °F - 6.8 °F 79% 30.48 in 10.0 mi Calm Calm - N/A   Clear
7:33 PM 12.2 °F - 6.8 °F 79% 30.47 in 10.0 mi Calm Calm - N/A   Clear
7:54 PM 10.4 °F - 6.8 °F 85% 30.47 in 10.0 mi Calm Calm - N/A   Clear
8:13 PM 12.2 °F 6.1 °F 6.8 °F 79% 30.46 in 10.0 mi ESE 3.5 mph - N/A   Clear
8:34 PM 10.4 °F - 5.0 °F 79% 30.44 in 10.0 mi Calm Calm - N/A   Clear
8:54 PM 10.4 °F 4.0 °F 5.0 °F 79% 30.44 in 10.0 mi SSE 3.5 mph - N/A   Clear
9:14 PM 10.4 °F - 5.0 °F 79% 30.43 in 10.0 mi Calm Calm - N/A   Clear
9:34 PM 10.4 °F 0.8 °F 6.8 °F 85% 30.43 in 10.0 mi SE 5.8 mph - N/A   Clear
9:54 PM 10.4 °F 0.8 °F 6.8 °F 85% 30.43 in 10.0 mi SE 5.8 mph - N/A   Clear
10:13 PM 8.6 °F 0.1 °F 5.0 °F 85% 30.42 in 10.0 mi SSE 4.6 mph - N/A   Clear
10:34 PM 8.6 °F -3.7 °F 5.0 °F 85% 30.40 in 10.0 mi SE 8.1 mph - N/A   Clear
10:54 PM 8.6 °F -2.6 °F 3.2 °F 79% 30.39 in 10.0 mi SE 6.9 mph - N/A   Clear
11:14 PM 8.6 °F -3.7 °F 3.2 °F 79% 30.38 in 10.0 mi SE 8.1 mph - N/A   Clear
11:34 PM 8.6 °F -2.6 °F 3.2 °F 79% 30.37 in 10.0 mi SE 6.9 mph - N/A   Clear
11:54 PM 8.6 °F -2.6 °F 3.2 °F 79% 30.36 in 10.0 mi SSE 6.9 mph - N/A   Clear